This is the latest recevied weather packets stored in our database for station/object SALIDA. If no packets are shown the sender has not sent any weather packets the latest 10 day(s).
| Time | Temp. | Humidity | Pressure | Rain* | Wind** | Luminosity | Snow |
|---|---|---|---|---|---|---|---|
| 1777219800 | 6.67° C | 76% | 996.5 hPa | 0 mm | - | - | - |
| 1777218900 | 6.67° C | 76% | 996.6 hPa | 0 mm | - | - | - |
| 1777218000 | 6.11° C | 75% | 997.3 hPa | 0 mm | - | - | - |
| 1777217100 | 5.56° C | 78% | 997.1 hPa | 0 mm | - | - | - |
| 1777216200 | 5.56° C | 78% | 997.3 hPa | 0 mm | - | - | - |
| 1777215300 | 5.56° C | 79% | 997.6 hPa | 0 mm | - | - | - |
| 1777214400 | 5° C | 83% | 998.1 hPa | 0 mm | - | - | - |
| 1777213500 | 3.33° C | 84% | 998.1 hPa | 0.25 mm | - | - | - |
| 1777212600 | 2.78° C | 85% | 998.6 hPa | 0.25 mm | - | - | - |
| 1777211700 | 3.33° C | 82% | 999 hPa | 0.25 mm | - | - | - |
| 1777210800 | 4.44° C | 81% | 999 hPa | 0.25 mm | - | - | - |
| 1777209900 | 3.89° C | 77% | 999.2 hPa | 0 mm | - | - | - |
| 1777209000 | 2.78° C | 81% | 998.3 hPa | 0 mm | - | - | - |
| 1777208100 | 2.78° C | 82% | 998.1 hPa | 0 mm | - | - | - |
| 1777207200 | 2.22° C | 83% | 998.2 hPa | 0 mm | - | - | - |
| 1777206300 | 2.78° C | 82% | 998.3 hPa | 0 mm | - | - | - |
| 1777205400 | 2.22° C | 82% | 998.4 hPa | 0 mm | - | - | - |
| 1777204500 | 2.22° C | 82% | 998.4 hPa | 0 mm | - | - | - |
| 1777203600 | 2.78° C | 82% | 998.4 hPa | 0 mm | - | - | - |
| 1777202700 | 2.78° C | 81% | 998.3 hPa | 0 mm | - | - | - |
| 1777201800 | 2.78° C | 80% | 998.6 hPa | 0 mm | - | - | - |
| 1777200900 | 3.33° C | 80% | 998.8 hPa | 0 mm | - | - | - |
| 1777200000 | 3.89° C | 79% | 998.7 hPa | 0 mm | - | - | - |
| 1777199100 | 3.89° C | 80% | 998.9 hPa | 0 mm | - | - | - |
| 1777198200 | 3.89° C | 80% | 998.9 hPa | 0 mm | - | - | - |
* Rain latest hour (hover to see other rain measurements)
** Current wind speed in m/s (hover to see current wind gust speed)